Location: Newark
(51.0000°N, 11.4100°E)
Time: 19:52:52
(UTC+00:00)

Transit 2A - All Passes

Search period start: 15 November 2019 00:00
Search period end: 25 November 2019 00:00
Orbit: 601 x 957 km, 66.7° (Epoch: 14 November)

Date Brightness Start Highest point End Pass type
(mag) Time Alt. Az. Time Alt. Az. Time Alt. Az.
15 Nov - 10:50:44 10° ESE 10:51:43 11° ESE 10:52:42 10° E daylight
15 Nov - 12:29:08 10° SSW 12:34:06 66° ESE 12:38:40 10° NE daylight
15 Nov - 14:13:27 10° W 14:17:35 28° NW 14:21:29 10° NNE daylight
15 Nov - 16:00:30 10° NW 16:02:14 12° NNW 16:03:57 10° N visible
15 Nov - 17:45:25 10° NNW 17:47:25 13° NNE 17:49:24 10° NE visible
15 Nov - 19:27:54 10° NNW 19:31:54 34° NE 19:35:55 10° ESE visible
15 Nov - 21:11:01 10° NW 21:15:07 41° WSW 21:19:17 10° S night (unlit)
16 Nov - 11:55:14 10° SSW 12:00:02 46° ESE 12:04:28 10° NE daylight
16 Nov - 13:38:51 10° WSW 13:43:18 35° NW 13:47:28 10° NNE daylight
16 Nov - 15:25:32 10° NW 15:27:45 13° NNW 15:29:55 10° NNE daylight
16 Nov - 17:11:22 10° N 17:12:55 12° N 17:14:27 10° NNE visible
16 Nov - 18:53:54 10° NNW 18:57:36 26° NE 19:01:19 10° E visible
16 Nov - 20:36:46 10° NW 20:41:04 61° WSW 20:45:26 10° SSE visible
17 Nov - 11:21:33 10° S 11:26:00 33° ESE 11:30:09 10° NE daylight
17 Nov - 13:04:22 10° WSW 13:09:04 46° NW 13:13:26 10° NNE daylight
17 Nov - 14:50:35 10° WNW 14:53:17 15° NNW 14:55:54 10° NNE daylight
17 Nov - 16:37:14 10° N 16:38:24 11° N 16:39:34 10° NNE visible
17 Nov - 18:19:54 10° NNW 18:23:16 21° NNE 18:26:38 10° E visible
17 Nov - 20:02:36 10° NW 20:06:59 87° SW 20:11:25 10° SE visible
17 Nov - 21:47:30 10° W 21:49:25 13° WSW 21:51:21 10° SW night (unlit)
18 Nov - 10:48:05 10° SSE 10:52:01 23° ESE 10:55:43 10° ENE daylight
18 Nov - 12:30:00 10° SW 12:34:52 62° NW 12:39:23 10° NNE daylight
18 Nov - 14:15:41 10° WNW 14:18:51 18° NNW 14:21:55 10° NNE daylight
18 Nov - 16:02:51 10° NNW 16:03:52 11° N 16:04:53 10° NNE visible
18 Nov - 17:45:54 10° NNW 17:48:53 17° NNE 17:51:51 10° ENE visible
18 Nov - 19:28:29 10° NW 19:32:50 67° NE 19:37:15 10° SE visible
18 Nov - 21:12:28 10° WNW 21:15:31 19° WSW 21:18:36 10° SSW night (unlit)
19 Nov - 10:15:00 10° SSE 10:18:05 17° ESE 10:21:02 10° ENE daylight
19 Nov - 11:55:45 10° SW 12:00:43 85° NW 12:05:17 10° NE daylight
19 Nov - 13:40:51 10° W 13:44:28 21° NNW 13:47:55 10° NNE daylight
19 Nov - 15:28:09 10° NNW 15:29:20 11° N 15:30:31 10° N daylight
19 Nov - 17:11:55 10° NNW 17:14:28 15° NNE 17:16:59 10° ENE visible
19 Nov - 18:54:26 10° NNW 18:58:39 48° NE 19:02:56 10° ESE visible
19 Nov - 20:37:54 10° WNW 20:41:34 27° WSW 20:45:19 10° S visible
20 Nov - 09:42:42 10° SE 09:44:11 11° ESE 09:45:38 10° E daylight
20 Nov - 11:21:40 10° SSW 11:26:36 70° ESE 11:31:09 10° NE daylight
20 Nov - 13:06:08 10° W 13:10:07 26° NW 13:13:55 10° NNE daylight
20 Nov - 14:53:15 10° NNW 14:54:50 12° N 14:56:22 10° N daylight
20 Nov - 16:37:55 10° NNW 16:40:00 13° NNE 16:42:03 10° NE visible
20 Nov - 18:20:23 10° NNW 18:24:25 36° NE 18:28:29 10° ESE visible
20 Nov - 20:03:32 10° NW 20:07:35 38° WSW 20:11:44 10° S visible
21 Nov - 10:47:45 10° SSW 10:52:32 49° ESE 10:56:57 10° NE daylight
21 Nov - 12:31:30 10° WSW 12:35:49 33° NW 12:39:55 10° NNE daylight
21 Nov - 14:18:17 10° NW 14:20:19 13° NNW 14:22:20 10° NNE daylight
21 Nov - 16:03:54 10° N 16:05:30 12° NNE 16:07:05 10° NNE visible
21 Nov - 17:46:22 10° NNW 17:50:08 28° NE 17:53:56 10° E visible
21 Nov - 19:29:16 10° NW 19:33:33 56° WSW 19:37:55 10° SSE visible
22 Nov - 10:14:01 10° S 10:18:29 35° ESE 10:22:40 10° NE daylight
22 Nov - 11:56:59 10° WSW 12:01:35 43° NW 12:05:53 10° NNE daylight
22 Nov - 13:43:19 10° NW 13:45:51 14° NNW 13:48:19 10° NNE daylight
22 Nov - 15:29:48 10° N 15:30:58 11° N 15:32:09 10° NNE daylight
22 Nov - 17:12:21 10° NNW 17:15:49 22° NNE 17:19:15 10° E visible
22 Nov - 18:55:06 10° NW 18:59:27 81° SW 19:03:56 10° SSE visible
22 Nov - 20:40:16 10° W 20:41:52 12° WSW 20:43:27 10° SW night (unlit)
23 Nov - 09:40:30 10° SSE 09:44:30 25° ESE 09:48:15 10° ENE daylight
23 Nov - 11:22:35 10° SW 11:27:22 58° NW 11:31:50 10° NNE daylight
23 Nov - 13:08:24 10° WNW 13:11:25 17° NNW 13:14:20 10° NNE daylight
23 Nov - 14:55:31 10° NNW 14:56:27 11° N 14:57:22 10° NNE daylight
23 Nov - 16:38:22 10° NNW 16:41:26 18° NNE 16:44:29 10° ENE visible
23 Nov - 18:20:58 10° NW 18:25:20 72° NE 18:29:47 10° SE visible
23 Nov - 20:05:05 10° WNW 20:07:58 17° WSW 20:10:55 10° SSW visible
24 Nov - 09:07:19 10° SSE 09:10:33 18° ESE 09:13:37 10° ENE daylight
24 Nov - 10:48:19 10° SW 10:53:13 79° NW 10:57:44 10° NE daylight
24 Nov - 12:33:33 10° WNW 12:37:01 20° NNW 12:40:21 10° NNE daylight
24 Nov - 14:20:53 10° NNW 14:21:55 11° N 14:22:57 10° N daylight
24 Nov - 16:04:23 10° NNW 16:07:01 15° NNE 16:09:38 10° ENE visible
24 Nov - 17:46:53 10° NNW 17:51:09 51° NE 17:55:29 10° ESE visible
24 Nov - 19:30:26 10° WNW 19:34:01 25° WSW 19:37:42 10° S visible
